Paynesville, MN

10:01 PM CST on November 21, 2017 (GMT -0600)
Paynesville

Weather History for KPEX - December, 2012

Change the Weather History Date:

Wednesday, December 5, 2012

  Actual Average (KLJF) Record (KLJF)
Temperature  
Mean Temperature 28 °F -  
Max Temperature 41 °F 30 °F 50 °F (1960)
Min Temperature 15 °F 13 °F -12 °F (1984)
Degree Days  
Heating Degree Days 38    
Moisture  
Dew Point 17 °F    
Average Humidity 62    
Maximum Humidity 82    
Minimum Humidity 48    
Precipitation  
Precipitation 0.00 in - - ()
Sea Level Pressure  
Sea Level Pressure 30.08 in    
Wind  
Wind Speed 10 mph (SE)    
Max Wind Speed 21 mph    
Max Gust Speed 31 mph    
Visibility 10 miles    
Events      
Averages and records for this station are not official NWS values.
T = Trace of Precipitation, MM = Missing Value Source: NWS Daily Summary

Daily Weather History Graph

Daily Weather History Graph

Search for Another Location

Airport or City:

Trip Planner

Search our weather history database for the weather conditions in past years. The results will help you decide how hot, cold, wet, or windy it might be!

Date:

Astronomy

Dec. 05, 2012 Rise Set
Actual Time 7:43 AM CST 4:36 PM CST
Civil Twilight 7:09 AM CST 5:10 PM CST
Nautical Twilight 6:32 AM CST 5:47 PM CST
Astronomical Twilight 5:56 AM CST 6:22 PM CST
Moon 11:41 PM CST (12/5) 11:54 AM CST (12/5)
Length of Visible Light 10h 00m
Length of Day
8h 53m
Waning Gibbous, 59% of the Moon is Illuminated
Dec 5
Waning Gibbous
Dec 6
Last Quarter
Dec 13
New
Dec 19
First Quarter
Dec 28
Full

Hourly Weather History & Observations

Time (CST) Temp. Windchill Dew Point Humidity Pressure Visibility Wind Dir Wind Speed Gust Speed Precip Events Conditions
12:14 AM 16.2 °F - 11.7 °F 82% 30.37 in 10.0 mi Calm Calm - N/A   Clear
12:33 AM 15.6 °F - 11.1 °F 82% 30.38 in 10.0 mi Calm Calm - N/A   Clear
12:53 AM 16.7 °F - 10.9 °F 78% 30.37 in 10.0 mi Calm Calm - N/A   Clear
1:14 AM 15.8 °F 10.2 °F 11.3 °F 82% 30.36 in 10.0 mi ENE 3.5 mph - N/A   Clear
1:53 AM 17.6 °F 12.3 °F 11.3 °F 76% 30.36 in 10.0 mi East 3.5 mph - N/A   Clear
2:14 AM 17.4 °F 9.1 °F 11.1 °F 76% 30.36 in 10.0 mi East 5.8 mph - N/A   Clear
2:33 AM 18.0 °F 8.7 °F 11.3 °F 75% 30.36 in 10.0 mi East 6.9 mph - N/A   Clear
2:53 AM 17.6 °F 12.3 °F 11.3 °F 76% 30.37 in 10.0 mi ESE 3.5 mph - N/A   Clear
3:14 AM 17.6 °F 10.7 °F 11.1 °F 76% 30.36 in 10.0 mi East 4.6 mph - N/A   Clear
3:33 AM 17.2 °F 8.9 °F 10.9 °F 76% 30.36 in 10.0 mi East 5.8 mph - N/A   Clear
3:53 AM 16.7 °F 6.2 °F 10.8 °F 77% 30.34 in 10.0 mi ESE 8.1 mph - N/A   Clear
4:14 AM 17.2 °F 6.0 °F 10.9 °F 76% 30.33 in 10.0 mi ESE 9.2 mph - N/A   Clear
4:33 AM 17.2 °F 6.8 °F 10.9 °F 76% 30.33 in 10.0 mi ESE 8.1 mph - N/A   Clear
4:54 AM 17.6 °F 7.3 °F 11.1 °F 76% 30.33 in 10.0 mi ESE 8.1 mph - N/A   Clear
5:13 AM 17.8 °F 5.9 °F 11.1 °F 75% 30.32 in 10.0 mi ESE 10.4 mph - N/A   Clear
5:33 AM 17.6 °F 8.2 °F 11.1 °F 76% 30.33 in 10.0 mi East 6.9 mph - N/A   Clear
5:54 AM 17.4 °F 7.1 °F 11.1 °F 76% 30.32 in 10.0 mi ESE 8.1 mph - N/A   Clear
6:13 AM 17.6 °F 5.7 °F 11.3 °F 76% 30.30 in 10.0 mi ESE 10.4 mph - N/A   Clear
6:33 AM 17.8 °F 5.9 °F 11.3 °F 76% 30.30 in 10.0 mi ESE 10.4 mph - N/A   Clear
6:54 AM 18.3 °F 5.9 °F 11.3 °F 74% 30.29 in 10.0 mi SE 11.5 mph - N/A   Clear
8:34 AM 19.2 °F 7.7 °F 12.2 °F 74% 30.26 in 10.0 mi ESE 10.4 mph - N/A   Clear
8:53 AM 20.1 °F 8.8 °F 12.4 °F 72% 30.26 in 10.0 mi ESE 10.4 mph - N/A   Clear
9:13 AM 20.7 °F 8.2 °F 12.7 °F 71% 30.24 in 10.0 mi ESE 12.7 mph - N/A   Clear
9:33 AM 21.4 °F 8.5 °F 12.7 °F 69% 30.23 in 10.0 mi ESE 13.8 mph 18.4 mph N/A   Clear
9:53 AM 22.8 °F 9.4 °F 13.3 °F 67% 30.22 in 10.0 mi SE 16.1 mph 23.0 mph N/A   Clear
10:14 AM 24.8 °F 11.5 °F 13.1 °F 61% 30.21 in 10.0 mi SE 17.3 mph - N/A   Clear
10:34 AM 25.5 °F 12.4 °F 13.3 °F 60% 30.20 in 10.0 mi SE 17.3 mph - N/A   Clear
10:53 AM 26.8 °F 13.7 °F 12.9 °F 56% 30.18 in 10.0 mi SE 18.4 mph 24.2 mph N/A   Clear
11:13 AM 27.3 °F 15.2 °F 12.9 °F 55% 30.16 in 10.0 mi SE 16.1 mph - N/A   Clear
11:34 AM 28.2 °F 15.9 °F 13.3 °F 54% 30.14 in 10.0 mi SE 17.3 mph 23.0 mph N/A   Clear
11:53 AM 28.4 °F 16.6 °F 13.1 °F 53% 30.12 in 10.0 mi ESE 16.1 mph 23.0 mph N/A   Clear
12:14 PM 29.3 °F 17.3 °F 13.6 °F 52% 30.09 in 10.0 mi ESE 17.3 mph 23.0 mph N/A   Scattered Clouds
12:33 PM 30.2 °F 18.1 °F 14.0 °F 51% 30.08 in 10.0 mi SE 18.4 mph 23.0 mph N/A   Overcast
12:54 PM 31.1 °F 20.1 °F 14.5 °F 50% 30.06 in 10.0 mi SE 16.1 mph 23.0 mph N/A   Overcast
1:13 PM 31.8 °F 21.0 °F 15.1 °F 50% 30.04 in 10.0 mi ESE 16.1 mph 19.6 mph N/A   Scattered Clouds
1:33 PM 32.0 °F 20.1 °F 15.4 °F 51% 30.03 in 10.0 mi SE 19.6 mph 26.5 mph N/A   Clear
1:54 PM 32.9 °F 22.0 °F 16.3 °F 51% 30.01 in 10.0 mi SE 17.3 mph 21.9 mph N/A   Clear
2:13 PM 33.8 °F 22.8 °F 16.7 °F 50% 30.00 in 10.0 mi SE 18.4 mph 26.5 mph N/A   Clear
2:34 PM 34.7 °F 25.1 °F 17.6 °F 50% 29.98 in 10.0 mi SE 15.0 mph 24.2 mph N/A   Clear
2:53 PM 35.6 °F 24.8 °F 18.0 °F 49% 29.97 in 10.0 mi SE 19.6 mph 31.1 mph N/A   Clear
3:13 PM 36.1 °F 25.9 °F 18.3 °F 48% 29.95 in 10.0 mi SE 18.4 mph 26.5 mph N/A   Clear
3:34 PM 36.5 °F 25.7 °F 18.9 °F 49% 29.94 in 10.0 mi SE 20.7 mph 31.1 mph N/A   Clear
3:54 PM 36.5 °F 25.7 °F 18.9 °F 49% 29.93 in 10.0 mi SE 20.7 mph 27.6 mph N/A   Clear
4:13 PM 36.5 °F 26.7 °F 19.4 °F 50% 29.91 in 10.0 mi SE 17.3 mph 27.6 mph N/A   Clear
4:33 PM 36.3 °F 26.1 °F 19.6 °F 51% 29.91 in 10.0 mi SE 18.4 mph 26.5 mph N/A   Clear
4:53 PM 36.5 °F 27.4 °F 20.3 °F 52% 29.91 in 10.0 mi SE 15.0 mph 20.7 mph N/A   Clear
5:13 PM 36.7 °F 27.2 °F 20.3 °F 52% 29.90 in 10.0 mi SE 16.1 mph 21.9 mph N/A   Clear
5:34 PM 36.9 °F 29.6 °F 20.3 °F 51% 29.90 in 10.0 mi SE 10.4 mph 19.6 mph N/A   Clear
6:14 PM 37.6 °F 29.1 °F 21.2 °F 52% 29.88 in 10.0 mi SE 13.8 mph 19.6 mph N/A   Scattered Clouds
6:33 PM 37.8 °F 28.6 °F 21.2 °F 51% 29.87 in 10.0 mi SSE 16.1 mph 25.3 mph N/A   Mostly Cloudy
6:53 PM 37.8 °F 30.2 °F 21.7 °F 53% 29.87 in 10.0 mi SE 11.5 mph 21.9 mph N/A   Mostly Cloudy
7:14 PM 38.3 °F 30.1 °F 22.1 °F 52% 29.86 in 10.0 mi SE 13.8 mph 19.6 mph N/A   Overcast
7:33 PM 38.7 °F 29.5 °F 22.8 °F 53% 29.86 in 10.0 mi SSE 17.3 mph 24.2 mph N/A   Overcast
7:54 PM 38.8 °F 30.0 °F 23.0 °F 53% 29.86 in 10.0 mi SSE 16.1 mph 21.9 mph N/A   Overcast
8:13 PM 39.2 °F 30.2 °F 23.5 °F 53% 29.85 in 10.0 mi SSE 17.3 mph 24.2 mph N/A   Overcast
8:33 PM 39.0 °F 29.6 °F 23.9 °F 55% 29.84 in 10.0 mi SSE 18.4 mph 25.3 mph N/A   Overcast
8:54 PM 39.2 °F 29.8 °F 23.9 °F 54% 29.82 in 10.0 mi SSE 18.4 mph 26.5 mph N/A   Overcast
9:13 PM 39.2 °F 30.2 °F 24.3 °F 55% 29.81 in 10.0 mi SSE 17.3 mph 27.6 mph N/A   Overcast
9:33 PM 39.2 °F 30.2 °F 24.6 °F 56% 29.81 in 10.0 mi SSE 17.3 mph 27.6 mph N/A   Scattered Clouds
9:54 PM 39.2 °F 30.2 °F 24.8 °F 56% 29.79 in 10.0 mi SSE 17.3 mph 24.2 mph N/A   Clear
10:13 PM 39.4 °F 30.1 °F 25.5 °F 58% 29.78 in 10.0 mi SSE 18.4 mph 26.5 mph N/A   Clear
10:34 PM 39.4 °F 31.1 °F 25.7 °F 58% 29.77 in 10.0 mi SSE 15.0 mph 25.3 mph N/A   Scattered Clouds
10:53 PM 39.7 °F 30.3 °F 26.2 °F 59% 29.77 in 10.0 mi SSE 19.6 mph 25.3 mph N/A   Scattered Clouds
11:13 PM 40.1 °F 30.7 °F 26.6 °F 59% 29.77 in 10.0 mi SSE 19.6 mph 25.3 mph N/A   Scattered Clouds
11:34 PM 40.3 °F 32.6 °F 27.1 °F 59% 29.76 in 10.0 mi SSE 13.8 mph 24.2 mph N/A   Scattered Clouds
11:54 PM 41.0 °F 32.8 °F 27.5 °F 59% 29.76 in 10.0 mi SSE 16.1 mph 21.9 mph N/A   Mostly Cloudy